Location: Bratislava
(48.1500°N, 17.1170°E)
Time: 06:17:18
(UTC+02:00)

N. Korean satellite - Pass Details

Date: 29 January 2019
Orbit: 457 x 508 km, 97.2° (Epoch: 18 April)

Event Time Altitude Azimuth Distance (km) Brightness Sun altitude
Rises 05:17:24 0° 26° (NNE) 2,606 10.6 -21.1°
Reaches altitude 10° 05:19:56 10° 43° (NE) 1,707 9.8 -20.7°
Maximum altitude 05:22:42 20° 92° (E) 1,190 9.4 -20.2°
Drops below altitude 10° 05:25:25 10° 142° (SE) 1,674 9.9 -19.8°
Sets 05:27:52 0° 159° (SSE) 2,537 10.6 -19.4°
